Saint Charles, IL

3:12 AM CST on February 24, 2017 (GMT -0600)
Du Page

Weather History for KDPA - February, 2013

Change the Weather History Date:

Saturday, February 16, 2013

  Actual Average Record
Temperature  
Mean Temperature 14 °F 28 °F  
Max Temperature 20 °F 37 °F 47 °F (2012)
Min Temperature 8 °F 20 °F -6 °F (2007)
Degree Days  
Heating Degree Days 51 37  
Month to date heating degree days 656 622  
Since 1 July heating degree days 4263 4337  
Cooling Degree Days 0 0  
Month to date cooling degree days 0 0  
Year to date cooling degree days 0 0  
Moisture  
Dew Point 4 °F    
Average Humidity 62    
Maximum Humidity 73    
Minimum Humidity 52    
Precipitation  
Precipitation T in 0.05 in 0.77 in (2006)
Month to date precipitation 1.12 0.71  
Year to date precipitation 4.12 2.02  
Sea Level Pressure  
Sea Level Pressure 30.19 in    
Wind  
Wind Speed 9 mph (NW)    
Max Wind Speed 18 mph    
Max Gust Speed 24 mph    
Visibility 10 miles    
Events      
T = Trace of Precipitation, MM = Missing Value Source: NWS Daily Summary

Daily Weather History Graph

Daily Weather History Graph

Search for Another Location

Airport or City:

Trip Planner

Search our weather history database for the weather conditions in past years. The results will help you decide how hot, cold, wet, or windy it might be!

Date:

Astronomy

Feb. 16, 2013 Rise Set
Actual Time 6:47 AM CST 5:27 PM CST
Civil Twilight 6:18 AM CST 5:56 PM CST
Nautical Twilight 5:45 AM CST 6:28 PM CST
Astronomical Twilight 5:13 AM CST 7:01 PM CST
Moon 9:52 AM CST (2/16) No Moon Set
Length of Visible Light 11h 37m
Length of Day
10h 40m
Waxing Crescent, 39% of the Moon is Illuminated
Feb 16
Waxing Crescent
Feb 17
First Quarter
Feb 25
Full
Mar 4
Last Quarter
Mar 11
New

Hourly Weather History & Observations

Time (CST) Temp. Windchill Dew Point Humidity Pressure Visibility Wind Dir Wind Speed Gust Speed Precip Events Conditions
12:52 AM 18.0 °F 4.8 °F 7.0 °F 62% 30.19 in 10.0 mi NNW 12.7 mph - N/A   Clear
1:52 AM 16.0 °F 2.9 °F 6.1 °F 65% 30.19 in 10.0 mi NNW 11.5 mph - N/A   Partly Cloudy
3:52 AM 12.9 °F 0.7 °F 3.9 °F 67% 30.17 in 10.0 mi NW 9.2 mph - N/A   Clear
4:52 AM 12.9 °F -0.2 °F 3.9 °F 67% 30.18 in 10.0 mi NW 10.4 mph - N/A   Clear
5:52 AM 12.0 °F -2.0 °F 3.9 °F 70% 30.18 in 10.0 mi NW 11.5 mph - N/A   Clear
6:52 AM 12.0 °F 0.5 °F 3.9 °F 70% 30.18 in 10.0 mi NW 8.1 mph - N/A   Clear
7:52 AM 12.9 °F 1.6 °F 5.0 °F 71% 30.19 in 10.0 mi NW 8.1 mph - N/A   Clear
8:52 AM 16.0 °F 7.4 °F 5.0 °F 62% 30.20 in 10.0 mi WNW 5.8 mph - N/A   Clear
9:52 AM 18.0 °F 7.7 °F 3.0 °F 52% 30.19 in 10.0 mi NW 8.1 mph 17.3 mph N/A   Overcast
10:52 AM 18.0 °F 2.6 °F 3.0 °F 52% 30.19 in 10.0 mi WNW 17.3 mph 20.7 mph N/A   Overcast
11:52 AM 19.0 °F 6.8 °F 6.1 °F 57% 30.17 in 9.0 mi West 11.5 mph - N/A   Overcast
12:52 PM 19.9 °F 6.7 °F 6.1 °F 55% 30.16 in 10.0 mi WNW 13.8 mph - 0.00 in   Overcast
1:52 PM 19.0 °F 5.6 °F 5.0 °F 54% 30.15 in 10.0 mi NW 13.8 mph - N/A   Overcast
2:52 PM 19.0 °F 6.1 °F 6.1 °F 57% 30.15 in 10.0 mi WNW 12.7 mph - N/A   Overcast
3:52 PM 18.0 °F 6.1 °F 6.1 °F 60% 30.17 in 9.0 mi NNW 10.4 mph - N/A   Overcast
4:52 PM 16.0 °F 2.9 °F 3.0 °F 57% 30.17 in 10.0 mi NW 11.5 mph - N/A   Overcast
5:52 PM 16.0 °F 4.4 °F 1.9 °F 54% 30.19 in 10.0 mi NW 9.2 mph - N/A   Overcast
6:52 PM 15.1 °F 4.2 °F 1.0 °F 54% 30.21 in 10.0 mi NNW 8.1 mph - N/A   Partly Cloudy
7:52 PM 12.9 °F 3.8 °F 1.0 °F 59% 30.21 in 10.0 mi NNW 5.8 mph - N/A   Clear
8:52 PM 12.0 °F 5.9 °F 1.0 °F 61% 30.22 in 10.0 mi NNW 3.5 mph - N/A   Clear
9:52 PM 10.9 °F - 1.9 °F 67% 30.22 in 10.0 mi Calm Calm - N/A   Clear
10:52 PM 9.0 °F 0.6 °F 1.9 °F 73% 30.22 in 10.0 mi West 4.6 mph - N/A   Clear
11:52 PM 10.0 °F - 1.9 °F 70% 30.21 in 10.0 mi Calm Calm - N/A   Clear